RH
68 81 19 14 11 9 9 7 6 5 3 3 3 3 2 2 3 5 11 56 91 52 12 2 2 2 2 2 2 2 3 3 4
75 61 45 15 11 8 7 6 5 4 3 3 3 3 2 2 2 4 4 6 6 4 3 2 2 2 2 2 3 3 4 4 5
85 78 41 15 13 9 7 6 5 4 3 3 3 3 2 2 2 2 3 3 3 3 2 2 2 2 2 3 3 4 5 5 6
78 89 86 15 12 9 8 7 6 5 4 3 3 3 3 4 2 2 2 3 3 2 2 2 2 3 3 4 4 5 5 6 7
73 78 47 22 12 8 8 7 6 5 4 3 3 4 4 4 4 4 4 38 23 7 2 2 3 3 4 4 5 5 6 7 8
62 60 28 15 12 10 7 7 7 6 4 3 4 4 4 4 4 4 3 62 84 34 16 7 3 4 4 5 6 6 7 9 10
60 65 48 34 16 10 8 7 7 6 5 4 4 4 4 4 4 4 4 4 23 29 13 5 4 4 5 5 6 7 8 10 12
61 64 70 40 35 14 9 7 7 7 6 5 4 4 4 4 4 4 4 3 3 4 4 4 4 4 5 5 6 8 9 11 12
67 68 73 48 40 37 14 8 7 8 7 6 5 4 3 4 4 4 4 4 4 4 4 4 4 4 5 5 6 8 10 12 13
61 71 77 74 54 37 41 18 8 7 8 7 6 5 4 3 4 5 5 5 4 4 4 4 4 4 5 5 7 8 10 12 13
57 72 81 84 73 50 39 44 24 8 8 9 7 5 5 4 4 4 6 4 4 4 4 4 4 4 5 6 7 8 10 12 12
42 56 75 84 74 70 46 39 41 28 8 8 8 7 6 5 4 4 5 5 5 4 4 4 4 4 5 6 7 8 10 11 12
57 58 66 79 93 87 77 43 41 45 29 9 10 9 7 6 6 4 5 6 5 5 4 4 4 5 6 6 8 9 10 11 12
56 74 81 85 91 100 99 84 52 50 49 37 11 10 9 7 6 6 5 5 6 5 4 4 4 5 6 7 9 9 10 11 12
41 65 97 98 95 99 100 100 92 82 61 56 45 18 10 8 8 7 6 6 5 6 5 4 4 6 7 8 9 10 11 11 12
59 54 81 82 99 93 98 100 100 100 97 73 58 52 33 15 9 9 8 7 6 5 5 5 5 6 7 8 11 11 12 12 13
48 47 53 67 98 99 98 100 99 100 99 98 88 87 64 47 29 14 10 9 8 7 7 6 5 5 6 9 12 12 12 13 13
37 33 30 48 92 95 87 99 89 92 91 98 98 98 90 87 83 73 40 16 10 10 8 8 7 6 7 8 10 13 14 13 14
33 41 31 47 59 75 97 92 99 96 96 99 91 95 100 96 92 89 90 78 60 26 12 10 10 9 8 8 10 14 16 15 15
27 41 39 45 76 70 73 96 97 93 86 93 100 100 97 97 97 97 92 84 86 82 45 20 14 12 11 11 10 14 16 16 16
Wind_Speed
5 9 9 14 14 13 12 9 7 6 5 7 8 9 9 8 10 13 16 19 20 17 13 11 10 10 9 8 7 7 7 7 7
10 10 10 12 13 12 11 9 7 7 6 8 8 9 8 9 10 13 14 15 12 12 11 10 9 9 9 8 7 8 7 7 7
13 11 11 10 13 12 11 9 8 6 6 8 9 9 9 10 13 15 14 12 11 11 11 10 10 9 8 8 8 7 7 7 6
15 15 14 10 12 12 11 10 9 7 8 9 8 8 8 7 10 13 14 13 13 13 13 12 11 10 9 9 8 8 6 6 5
20 19 17 14 13 13 11 10 9 7 8 10 10 7 6 6 8 10 14 10 13 12 13 13 13 11 10 9 7 7 6 5 4
21 20 16 14 13 14 13 11 10 9 9 10 11 10 9 8 8 11 14 13 12 11 13 14 12 11 10 9 8 6 5 4 3
22 21 18 16 14 15 14 13 12 10 9 10 12 12 11 10 10 12 14 16 15 15 12 11 12 11 10 9 8 6 4 3 3
24 23 21 18 15 15 15 15 13 12 11 11 14 14 14 14 14 14 15 16 16 14 13 13 13 12 11 10 9 8 6 5 5
25 24 24 21 18 16 15 15 15 14 13 12 15 17 16 16 16 16 17 17 16 16 14 13 13 13 13 12 10 8 8 8 7
28 26 25 24 21 19 16 16 16 16 14 14 16 17 15 16 15 14 18 19 19 18 17 16 16 15 14 14 12 11 11 10 9
32 29 28 26 25 22 19 18 16 16 15 16 17 17 15 14 15 16 18 20 20 18 19 18 17 16 16 15 14 14 13 12 11
36 34 30 27 27 24 24 22 19 17 18 17 17 17 17 17 16 15 17 19 19 19 20 20 19 18 18 17 16 16 15 14 12
36 36 34 31 30 27 26 23 21 19 18 16 17 19 20 19 18 15 16 18 20 21 22 21 20 20 20 20 17 17 16 15 14
38 35 34 33 33 29 29 25 21 19 19 17 18 21 23 20 19 17 16 18 19 20 22 22 22 22 22 21 19 20 20 19 17
41 38 33 35 33 30 32 24 24 20 21 20 21 22 23 22 20 19 18 18 19 21 22 23 23 24 25 21 23 22 22 21 20
38 42 39 37 35 34 33 32 25 26 24 22 23 23 22 22 21 21 20 19 20 21 22 23 24 25 26 22 24 24 24 23 22
43 41 41 40 38 35 37 30 28 30 28 30 24 23 24 23 22 21 21 21 21 22 22 23 25 25 27 26 25 26 26 25 24
43 43 42 41 42 39 38 34 35 33 33 29 28 26 28 21 21 20 20 21 22 23 23 24 25 26 27 28 27 28 28 28 27
40 40 41 40 42 44 39 36 39 32 31 31 32 29 27 30 26 26 22 20 20 23 23 24 25 27 27 29 29 27 29 30 29
40 39 39 41 40 41 42 40 36 35 38 40 26 25 34 35 32 29 26 27 29 25 23 25 26 27 28 28 29 29 31 32 31
Wind_Direction
213 188 173 174 174 184 198 210 229 235 218 189 197 203 202 192 181 178 169 161 160 170 163 154 154 147 148 139 136 128 124 125 121
199 202 196 191 189 196 202 206 218 230 217 195 194 200 200 178 168 174 184 180 177 169 169 168 164 155 155 147 151 144 147 138 127
208 214 222 227 214 205 207 211 217 221 218 196 193 204 200 191 181 177 186 183 184 183 181 181 174 167 164 161 163 157 155 141 121
206 222 231 239 225 219 216 216 217 219 206 193 205 206 196 197 197 181 178 185 191 190 192 186 181 180 174 172 175 166 157 137 119
207 221 238 244 234 227 225 224 226 219 223 202 202 212 210 205 195 176 177 169 187 195 192 192 189 185 183 177 183 175 165 145 132
227 228 232 237 236 231 229 232 233 224 226 221 210 206 208 209 195 179 187 151 145 174 183 189 184 185 188 176 192 187 172 159 152
237 236 233 235 235 232 230 229 232 235 224 224 222 220 214 212 205 192 205 201 188 184 190 180 187 190 194 193 197 201 187 187 206
238 238 236 236 235 233 232 231 230 234 228 222 226 222 221 216 209 203 208 208 217 221 211 201 200 201 204 210 210 206 201 212 227
240 236 236 236 237 234 233 233 229 228 230 224 228 230 224 223 221 210 207 212 215 221 223 224 219 217 212 214 217 222 214 221 234
240 236 233 234 238 236 234 234 231 230 226 225 232 236 234 228 220 216 216 214 219 221 223 226 228 229 227 222 219 216 226 232 236
238 237 233 234 237 237 234 235 233 231 227 221 230 238 236 234 228 218 219 223 226 224 225 230 231 233 235 234 227 224 225 231 243
237 236 236 235 232 234 233 234 234 230 228 220 230 233 235 235 234 228 225 226 226 229 232 231 233 236 238 238 233 233 232 235 239
234 236 236 236 236 232 230 231 233 230 231 228 225 231 237 238 240 234 229 230 230 230 236 238 237 237 235 238 235 238 237 241 242
231 232 234 229 235 229 233 225 226 230 231 229 227 232 240 240 242 241 232 235 235 235 238 240 240 242 242 238 234 235 238 240 244
231 229 231 232 235 233 241 236 219 225 231 230 232 236 242 242 242 241 240 239 237 238 243 244 242 241 244 244 240 238 239 242 244
229 228 228 228 234 240 239 233 230 234 227 232 236 240 245 247 246 249 249 245 246 244 244 246 247 247 248 244 241 243 242 244 247
229 229 230 227 234 223 228 233 229 231 235 242 247 250 249 249 252 253 252 252 252 253 251 251 252 250 252 249 243 244 246 247 249
229 230 229 230 223 226 235 228 240 236 233 246 243 248 249 256 257 260 261 260 259 259 260 258 256 255 253 256 252 248 248 251 253
227 228 227 227 226 225 227 238 232 229 224 240 244 246 243 251 260 260 260 261 263 263 264 266 263 261 257 257 257 251 251 253 254
226 225 225 226 226 225 229 225 228 236 235 240 232 236 241 258 253 261 261 263 263 262 264 262 263 265 264 262 261 257 255 254 255